Miscellaneous Local Product
Issued by NWS Hastings, NE

Home | Current Version | Previous Version | Text Only | Print | Product List | Glossary Off
Versions: 1 2 3 4 5 6 7 8 9 10 11 12 13 14 15 16 17 18 19 20 21 22 23 24 25 26 27 28 29 30 31 32 33 34 35 36 37 38 39 40 41 42 43 44 45 46 47 48 49 50

000
AXUS43 KGID 242202
MISGRI

GID CWA HOURLY WEATHER ROUNDUP
NATIONAL WEATHER SERVICE HASTINGS NE
500 PM CDT SUN JUL 24 2016

NOTE: "FAIR" INDICATES FEW OR NO CLOUDS BELOW 12,000 FEET WITH NO
SIGNIFICANT WEATHER AND/OR OBSTRUCTIONS TO VISIBILITY.

...SOUTH CENTRAL NEBRASKA...

CITY           SKY/WX    TMP DP  RH WIND       PRES   REMARKS
GRAND ISLAND   SUNNY     87  62  43 NE14      30.05S
HASTINGS       SUNNY     86  63  45 E12       30.05F
KEARNEY        SUNNY     86  57  37 E15       30.06F
ORD            CLOUDY    83  60  45 E7        30.06F
YORK           SUNNY     84  64  51 NE12      30.04F
AURORA         SUNNY     85  62  46 E10       30.05S
LEXINGTON      SUNNY     85  56  37 E14       30.07R
HOLDREGE       SUNNY     85  58  40 E20       30.05F
HEBRON         MOSUNNY   84  61  44 NE15G21   30.04S

...NEBRASKA PANHANDLE...

CITY           SKY/WX    TMP DP  RH WIND       PRES   REMARKS
CHADRON        SUNNY     88  44  21 E9G20     30.10S
ALLIANCE       CLOUDY    77  51  40 SE10      30.15R
SCOTTSBLUFF    LGT RAIN  77  55  46 E14G26    30.09F
SIDNEY         SUNNY     83  53  35 E17G24    30.16F

...WESTERN AND NORTH CENTRAL NEBRASKA...

CITY           SKY/WX    TMP DP  RH WIND       PRES   REMARKS
VALENTINE      SUNNY     86  48  26 VRB5      30.10F
AINSWORTH      SUNNY     84  58  41 E6        30.10S
ONEILL         CLOUDY    83  55  38 E6        30.09F
BROKEN BOW     CLOUDY    82  63  52 NE9G18    30.09R
IMPERIAL       SUNNY     88  55  32 E15       30.08F
NORTH PLATTE   SUNNY     85  58  39 E14G20    30.09S
MCCOOK         SUNNY     88  59  37 E17G26    30.04S

...EASTERN NEBRASKA...

CITY           SKY/WX    TMP DP  RH WIND       PRES   REMARKS
NORFOLK        CLOUDY    83  58  42 N12       30.05S
SO SIOUX CITY  PTSUNNY   86  59  39 N10       30.01S
TEKAMAH        MOSUNNY   87  63  44 N10       30.01S
COLUMBUS       SUNNY     82  61  47 N12       30.05S
ALBION         CLOUDY    79  61  54 NE6       30.07S
OMAHA EPPLEY   PTSUNNY   83  67  58 N6        30.01S
OFFUTT AFB     CLOUDY    82  67  60 N6        30.01F
MILLARD        MOSUNNY   83  65  56 CALM      30.02F
LINCOLN        CLOUDY    82  68  62 NE8       30.02F
NEBRASKA CITY  PTSUNNY   77  68  75 NE9       30.02F
BEATRICE       CLOUDY    77  67  69 NE9       30.02R
FALLS CITY     LGT RAIN  79  69  71 N8        30.00R

...NORTHERN KANSAS...

CITY           SKY/WX    TMP DP  RH WIND       PRES   REMARKS
GOODLAND       LGT RAIN  91  58  32 E12       30.06F HX  90
HILL CITY      SUNNY     90  63  40 E17       30.02F HX  91
NORTON         CLEAR     88  46  23 NE20G28   30.03
SMITH CENTER   SUNNY     88  55  33 NE22      30.03S
BELOIT         MOSUNNY   82  64  54 NE18G24   29.99F
HAYS           SUNNY     91  66  43 NE22G28   29.99S HX  94
RUSSELL        MOSUNNY   90  67  46 NE16G24   29.97S HX  93
CONCORDIA      CLOUDY    81  66  60 NE15      30.02S
SALINA         CLOUDY    94  67  41 NE16G22   29.95S HX  97
TOPEKA         CLOUDY    91  76  61 N7        29.95S HX 103



USA.gov is the U.S. government's official web portal to all federal, state and local government web resources and services.